www.pogodaiklimat.ru

Погода и климат >> Архив погоды >> Россия >> Нижегородская область >> Дальнее Константиново


ПОГОДА в Дальнем Константиново

  • Прогноз погоды в Дальнем Константиново
  • Монитор погоды в Дальнем Константиново
  • Климат города

АРХИВ ПОГОДЫ в Дальнем Константиново

Время (UTC), дата Ветер
(напр.,м/с)
 
Видим.   Явления Облачность Т
(С)
Тd
(С)
f
(%)
Тe
(С)
Тes
(С)
Комфортность P
(гПа)
Po
(гПа)
Тmin
(С)
Tmax
(С)
R
(мм)
R24
(мм)
S
(см)
03 14.10 штиль 0
{2}
4000 м дымка 10/10 300 м
[St]
+6.9 +6.2 95 +6 +6 1023.2 1006.8 +6.5
06 14.10 штиль 0
{3}
500 м туман 10/10 300 м
[St]
+6.4 +6.0 97 +5 +5 1024.1 1007.6 +6.1
09 14.10 З 2-2
{3}
10 км {туман} 10/10 600 м
[Sc]
+9.0 +6.8 86 +7 +7 1024.0 1007.6
12 14.10 Ю 1-1
{3}
10 км {туман} 10/0
[As trans]
+8.2 +6.4 88 +7 +8 1023.5 1007.2
15 14.10 Ю 1-1
{2}
4000 м слабый дождь 10/0 600 м
[As op]
+7.9 +7.0 94 +7 +7 1023.5 1007.1 +8.9 0.4
18 14.10 ЮЗ 1-2
{4}
4000 м слабая морось {дождь} 10/10 300 м
[St]
+8.1 +7.4 95 +7 +7 1021.5 1005.2
21 14.10 ЮЗ 1-2
{3}
4000 м слабый дождь {морось} 10/0 600 м
[As op]
+8.7 +8.2 97 +8 +8 1020.5 1004.2
00 15.10 З 1-2
{3}
4000 м {дождь} 10/10 600 м
[Sc]
+10.6 +9.7 94 +10 +10 1020.6 1004.4
03 15.10 З 2-3
{4}
4000 м слабая морось 10/10 300 м
[St]
+11.1 +10.2 94 +10 +10 1020.7 1004.5 +7.8 2
06 15.10 З 2-4
{4}
10 км в посл. час морось 10/10 600 м
[Sc]
+12.0 +10.6 91 +11 +11 1021.9 1005.8
09 15.10 СЗ 3-5
{7}
10 км 8/8 600 м
[Sc]
+14.4 +11.2 81 +13 +14 1021.9 1005.9
12 15.10 СЗ 4-7
{7}
10 км ясно +18.9 +9.7 55 +19 +20 1021.0 1005.3
15 15.10 З 3-6
{7}
4000 м ясно +15.8 +8.5 62 +15 +15 1022.1 1006.1 +18.9 0.0
18 15.10 З 2-4
{6}
4000 м ясно +13.1 +8.8 75 +12 +12 1022.6 1006.5
21 15.10 З 1-2
{5}
4000 м ясно +10.7 +8.0 83 +10 +10 1022.9 1006.7
00 16.10 ЮЗ 2-3
{4}
4000 м ясно +9.4 +8.0 91 +8 +8 1023.2 1006.9
03 16.10 З 2-3
{3}
4000 м ясно +7.8 +7.0 95 +6 +6 1023.7 1007.3 +7.2
06 16.10 З 2-4
{5}
10 км ясно +10.0 +8.1 88 +8 +10 1022.9 1006.7
09 16.10 З 3-6
{7}
10 км 1/0
[Ci fib]
+16.2 +7.1 55 +16 +19 1022.2 1006.4
12 16.10 ЮЗ 3-5
{7}
10 км 6/0
[Ci]
+17.3 +6.5 49 +17 +18 1021.7 1005.9
15 16.10 Ю 1-2
{5}
4000 м 8/0
[Cs]
+11.4 +6.2 70 +11 +11 1021.9 1005.7 +18.0
18 16.10 З 1-3
{5}
4000 м ясно +10.5 +5.3 70 +10 +10 1021.0 1004.8
21 16.10 З 4-7
{7}
4000 м ясно +9.3 +4.8 73 +7 +7 1020.0 1003.7
00 17.10 З 3-4
{7}
4000 м ясно +8.6 +4.3 74 +6 +6 1019.3 1003.0
03 17.10 З 2-5
{5}
4000 м ясно +7.3 +4.1 80 +5 +5 1019.7 1003.3 +7.2
06 17.10 СЗ 1-2
{5}
10 км 3/0
[Ac lent]
+9.0 +5.3 78 +8 +9 1020.5 1004.2
09 17.10 СЗ 2-4
{6}
10 км 3/3 600 м
[Cu med, cong]
+13.2 +6.8 65 +13 +15 1021.4 1005.3
12 17.10 С 3-4
{7}
10 км 1/1 600 м
[Cu hum]
+13.8 +5.0 55 +13 +14 1022.4 1006.3
15 17.10 С 1-2
{6}
4000 м ясно +9.5 +4.1 69 +9 +9 1024.3 1007.9 +13.8
18 17.10 ЮЗ 1-1
{3}
4000 м ясно +4.1 +3.1 93 +3 +3 1025.6 1008.9
21 17.10 штиль 0
{1}
4000 м ясно +2.3 +1.8 96 +1 +1 1025.9 1009.0
00 18.10 штиль 0
{1}
4000 м ясно +0.3 0.0 98 -1 -1 1026.4 1009.4
03 18.10 Ю 1-1
{2}
4000 м 4/0
[Ac trans]
+1.2 +0.7 96 -1 -1 1025.8 1008.9 0.0
06 18.10 ЮЗ 2-3
{4}
10 км ясно +6.6 +5.0 90 +4 +5 1024.9 1008.4
09 18.10 ЮЗ 3-4
{6}
10 км ясно +11.5 +7.6 77 +10 +12 1023.6 1007.4
12 18.10 ЮЗ 2-4
{6}
10 км ясно +15.7 +8.4 62 +16 +17 1021.4 1005.4
15 18.10 ЮЗ 3-4
{5}
4000 м ясно +11.5 +7.8 78 +10 +10 1020.3 1004.1 +15.6
18 18.10 ЮЗ 3-4
{6}
4000 м ясно +10.5 +7.1 79 +9 +9 1018.8 1002.6
21 18.10 ЮЗ 2-3
{5}
4000 м ясно +9.3 +6.7 84 +8 +8 1018.1 1001.9
00 19.10 ЮЗ 2-3
{4}
4000 м ясно +7.4 +5.8 90 +5 +5 1017.4 1001.1
03 19.10 ЮЗ 2-3
{5}
4000 м ясно +6.6 +5.7 94 +4 +4 1016.4 1000.1 +6.6
06 19.10 ЮЗ 3-6
{6}
10 км ясно +10.0 +7.7 86 +8 +9 1015.8 999.7 +6.5
09 19.10 ЮЗ 4-5
{8}
10 км 6/6 1000 м
[Sc]
+16.7 +9.7 63 +16 +17 1014.3 998.5
12 19.10 ЮЗ 3-10
{10}
10 км 9/9 600 м
[Sc]
+17.1 +9.9 63 +17 +17 1013.0 997.3
15 19.10 ЮЗ 3-6
{10}
4000 м {дождь} 8/8 600 м
[Sc]
+13.2 +11.5 89 +12 +12 1013.1 997.2 +18.9 0.6
18 19.10 З 2-3
{6}
4000 м {дождь} 8/0
[Ac trans]
+12.1 +10.7 91 +11 +11 1013.0 997.1
21 19.10 СЗ 3-5
{5}
4000 м 10/0
[As op]
+11.2 +8.8 85 +9 +9 1013.3 997.3
00 20.10 З 3-4
{5}
4000 м ясно +8.5 +6.1 85 +6 +6 1013.5 997.4
03 20.10 З 3-4
{5}
4000 м {ливн. осадки} 3/0
[Ac trans]
+5.9 +4.7 92 +3 +3 1014.6 998.2 +5.9 0.3
06 20.10 СЗ 3-6
{6}
10 км {ливн. осадки} ясно +6.2 +4.1 86 +3 +4 1015.5 999.1 +4.7
09 20.10 СЗ 3-7
{9}
10 км 10/10 600 м
[Sc]
+7.7 +2.1 68 +5 +5 1016.6 1000.3
12 20.10 СЗ 3-6
{9}
10 км 10/10 600 м
[Sc]
+7.4 +1.3 65 +5 +5 1017.8 1001.5
15 20.10 СЗ 3-5
{8}
4000 м 10/10 600 м
[Sc]
+6.8 +1.6 69 +4 +4 1018.6 1002.3 +7.9
18 20.10 СЗ 1-3
{6}
4000 м 3/0
[Ci ing]
+3.8 +1.2 83 +2 +2 1019.9 1003.3
21 20.10 Ю 1-2
{3}
4000 м 3/0
[Ci ing]
+1.0 +0.2 94 -1 -1 1020.9 1004.1
00 21.10 ЮЗ 1-3
{3}
4000 м 4/0
[Ac trans]
+0.9 +0.4 96 -1 -1 1021.6 1004.8

 

Местоположение метеостанции Дальнее Константиново (Нижегородская область, Россия): широта 55.80 долгота 44.08 высота над уровнем моря 133 м.

В архиве по умолчанию представлена погода в Дальнем Константиново за последнюю неделю. Архивные данные за месяц целиком и за предыдущие месяцы, начиная с января 2011 года, Вы можете получить, выбрав интересующий диапазон дат из раскрывающегося списка и нажав кнопку "Ввод!".


*Определитесь, кто Вы:
робот инопланетянин человек

Внимание! Время в таблицах - всемирное. Для получения местного времени необходимо прибавить поправку, которая в Дальнем Константиново равна 3 ч.

Смотрите также архив погоды в соседних городах и на ближайших метеорологических станциях:

Погода в Нижнем Новгороде аэропорт (Нижегородская область, Россия) (51 км)
Погода в Арзамасе (Нижегородская область, Россия) (51 км)
Погода в Нижнем Новгороде (Нижегородская область, Россия) (53 км)
Погода в Лысково (Нижегородская область, Россия) (64 км)
Погода в Павлово (Нижегородская область, Россия) (68 км)
Погода в Лукоянове (Нижегородская область, Россия) (90 км)
Погода в Балахне (Нижегородская область, Россия) (92 км)
Погода в Сергаче (Нижегородская область, Россия) (94 км)
Погода в Волжской ГМО (Нижегородская область, Россия) (106 км)
Погода в Семенове (Нижегородская область, Россия) (107 км)

Пояснения к столбцам:

Ветер - указаны скорость ветра в м/с - средняя за 10 мин, порывы в срок и между сроками (в фигурных скобках) и направление, откуда дует ветер: С - северный, СВ - северо-восточный, В - восточный, ЮВ - юго-восточный, Ю - южный, ЮЗ - юго-западный, З - западный, СЗ - северо-западный.
Видимость - горизонтальная дальность видимости в метрах или километрах. При видимости от 1 до 10 км при отсутствии осадков обычно наблюдается дымка, при ухудшении видимости до 1 км и менее - туман. В сухую погоду видимость может ухудшаться дымом, пылью или мглою.
Явления - указаны атмосферные явления, наблюдавшиеся в срок или в последний час перед сроком; фигурными скобками обозначены явления, наблюдавшиеся между сроками (за 1-3 часа до срока); квадратными скобками обозначены град или гололедные отложения с указанием их диаметра в мм.
Облачность - указаны через наклонную черту общая и нижняя облачность в баллах и высота нижней границы облаков в метрах; квадратными скобками обозначены формы облаков: Ci - перистые, Cs - перисто-слоистые, Cc - перисто-кучевые, Ac - высококучевые, As - высокослоистые, Sc - слоисто-кучевые, Ns - слоисто-дождевые, Cu - кучевые, Cb - кучево-дождевые. Подробнее классификацию облаков см. в Атласе облаков (PDF).
T - Температура воздуха - температура, измеренная на высоте 2 м над землей.
Td - Температура точки росы - температура, при понижении до которой содержащийся в воздухе водяной пар достигнет насыщения.
f - Относительная влажность воздуха - влажноcть воздуха, измеренная на высоте 2 м над землей.
Te - Эффективная температура - температура, которую ощущает одетый по сезону человек в тени. Характеристика душности погоды. При расчете учитывается влияние влажности воздуха и скорости ветра на теплоощущения человека.
Tes - Эффективная температура на солнце - температура, которую ощущает человек, с поправкой на солнечный нагрев. Характеристика знойности погоды. Зависит от высоты солнца над горизонтом, облачности и скорости ветра. Ночью, в пасмурную погоду, а также при ветре 12 м/с и более поправка равна нулю.
P - Атмосферное давление - приведенное к уровню моря атмосферное давление.
Po - Атмосферное давление - измеренное на уровне метеостанции атмосферное давление.
Tmin - Минимальная температура - минимум температуры воздуха на высоте 2 м над землей.
Tmax - Максимальная температура - максимум температуры воздуха на высоте 2 м над землей.
R - Количество осадков - Количество выпавших осадков за период времени, мм. При наведении курсора мыши на число - период времени, за который выпало указанное количество осадков.
R24 - Количество осадков - Количество выпавших осадков за 24 часа, мм.
S - Снежный покров - Высота снежного покрова, см. При наведении курсора мыши на число - состояние снежного покрова и степень покрытия местности в баллах.